Regional Weather Roundup
Issued by NWS Charleston, SC

Current Version | Previous Version | Text Only | Print | Product List | Glossary Off
Versions: 1 2 3 4 5 6 7 8 9 10 11 12 13 14 15 16 17 18 19 20 21 22 23 24 25 26 27 28 29 30 31 32 33 34 35 36 37 38 39 40 41 42 43 44 45 46 47 48 49 50

000
ASUS42 KCHS 062127
RWRCHS

REGIONAL WEATHER ROUNDUP
NATIONAL WEATHER SERVICE CHARLESTON SC
500 PM EDT MON JUL 06 2015

NOTE: "FAIR" INDICATES FEW OR NO CLOUDS BELOW 12,000 FEET WITH NO
SIGNIFICANT WEATHER AND/OR OBSTRUCTIONS TO VISIBILITY.

NOT ALL STATIONS ARE QUALITY CONTROLLED BY THE NATIONAL
WEATHER SERVICE. USE DATA WITH CAUTION...ESPECIALLY
DEWPOINT OBSERVATIONS.

SCZ027-030-031-034>040-042>050-062200-
...SOUTHEAST SOUTH CAROLINA...

CITY           SKY/WX    TMP DP  RH WIND       PRES   REMARKS
N CHARLESTON   MOSUNNY   86  69  56 S6        30.09F HX  90
WATERFRONT PAR   N/A     82  74  77 S14       30.08F
MOUNT PLEASANT FAIR      86  72  62 S10G16    30.10S HX  92
JOHNS ISLAND   FAIR      84  73  70 S10       30.10F HX  91
PINOPOLIS      NOT AVBL
MONCKS CORNER  FAIR      86  70  58 SW5       30.09S HX  90
SUMMERVILLE    FAIR      88  72  58 SW5       30.09F HX  94
BEAUFORT MCAS  PTSUNNY   87  75  67 S7        30.10F HX  96
BEAUFORT ARPT  FAIR      84  75  74 S5        30.10S HX  92
HILTON HEAD IS MOSUNNY   81  72  74 E7        30.12F
WALTERBORO     PTCLDY    86  68  54 S7        30.09F
ALLENDALE      FAIR      88  72  58 VRB5      30.08F HX  94

...SOUTHERN MIDLANDS AND PEE DEE...

CITY           SKY/WX    TMP DP  RH WIND       PRES   REMARKS
GEORGETOWN     NOT AVBL
KINGSTREE      NOT AVBL
ORANGEBURG     MOSUNNY   86  69  56 SW7       30.09F HX  90
BARNWELL       FAIR      90  70  51 SW6       30.09F HX  95
AIKEN          NOT AVBL
MANNING        FAIR      86  64  48 SW7       30.08F
COLUMBIA       MOSUNNY   90  67  46 SW8       30.06F HX  93
SUMTER         SUNNY     88  69  51 SW9       30.06F HX  92
FLORENCE       SUNNY     89  71  55 S12       30.07F HX  95
MYRTLE BEACH   MOSUNNY   84  72  65 S14       30.11F
N MYRTLE BEACH MOSUNNY   82  74  76 S16       30.10F

$$

GAZ063-065-086>088-099>101-113>116-118-119-134>141-150-062200-
...SOUTHEAST GEORGIA...

CITY           SKY/WX    TMP DP  RH WIND       PRES   REMARKS
SAVANNAH ARPT  PTSUNNY   89  68  49 W8        30.09F HX  93
HUNTER AAF     MOSUNNY   85  76  75 S9        30.07F HX  95
FORT STEWART   MOSUNNY   89  68  49 W3        30.07F HX  93
STATESBORO     NOT AVBL
SYLVANIA       PTCLDY    87  72  59 SW3       30.10F HX  94
CLAXTON        FAIR      86  70  58 CALM      30.09F HX  90

...CSRA...CENTRAL AND FAR SOUTHEAST GEORGIA...

CITY           SKY/WX    TMP DP  RH WIND       PRES   REMARKS
THOMSON        PTSUNNY   89  73  58 SW3       30.13F HX  96
AUGUSTA-BUSH   MOSUNNY   89  68  49 VRB6      30.07F HX  93
AUGUSTA-DANIEL MOSUNNY   88  68  51 SW6       30.10F HX  91
SWAINSBORO     FAIR      90  68  48 W8        30.11F HX  93
VIDALIA        MOSUNNY   90  66  45 SW5       30.10F HX  92
EASTMAN        MOCLDY    85  70  59 SW3       30.13F HX  90
HAZLEHURST     FAIR      86  70  57 SW5       30.10S HX  91
ALMA           PTSUNNY   86  67  52 W9        30.11F
WAYCROSS       PTSUNNY   91  73  54 W7        30.10S HX  99
JESUP          FAIR      93  68  43 W9        30.09F HX  97
BAXLEY         CLOUDY    86  68  54 CALM      30.10F
BRUNSWICK      PTSUNNY   77  70  78 CALM      30.12R THUNDER
SAINT SIMONS   MOSUNNY   80  73  79 S9        30.11F

$$

SCZ027-028-034-036>038-045-046-048>050-GAZ119-141-062200-
...LAKE AND SUPPLEMENTAL COASTAL OBSERVATIONS...

STATION/POSITION TIME  TEMP    WIND        PRES    WAVE   SWELL
                       AIR SEA DIR/SP/G            HT/PER HT/PER/DIR
                 (UTC) (F)     (DEG/KT/KT) (MB)    (FT/S) (FT/S/D)
UPR LAKE MARION  NOT AVBL
WINYAH BAY       2000   81     140/ 10     1019.0S
LAKE MURRAY      2000   88     190/  4/  7 1017.9F
ACE BASIN NERRS  2000   84        CALM     1020.0F
FORT PULASKI     2100   81 84  130/  7/ 12 1020.0F
SAPELO ISLAND    2100   87     140/  9     1019.0F

$$

ANZ835-935-AMZ111-154-330-350-352-354-370-450-454-472-062200-
...C-MAN AND BUOY OBSERVATIONS...

STATION/POSITION TIME  TEMP    WIND        PRES    WAVE   SWELL
                       AIR SEA DIR/SP/G            HT/PER HT/PER/DIR
                 (UTC) (F)     (DEG/KT/KT) (MB)    (FT/S) (FT/S/D)
BUOY 41004       2050   80 83  220/ 10/ 12 1019.5F   3/ 8   2/ 8
BUOY 41008       2050   78 80  150/ 12/ 12 1020.2F   1/ 9   2/110/ 9
FOLLY BEACH CMAN 2100   81     190/ 12/ 14 1019.5F
CAPERS NEARSHORE 2008   81     210/ 14/ 16 1020.2F
FRIPP NEARSHORE  2000   80     190/  8/ 10 1020.0F


STATION/POSITION TIME  TEMP    WIND        PRES    WAVE   SWELL
                       AIR SEA DIR/SP/G            HT/PER HT/PER/DIR
                 (UTC) (F)     (DEG/KT/KT) (MB)    (FT/S) (FT/S/D)
5E ST. MARYS GA  2021      78                N/A     2/ 9
FRYING PAN BUOY  2050   81 80  210/  8/ 10 1020.4F   3/ 5   2/190/ 5
BUOY 41025       2050   80 83  190/ 14/ 16 1019.9F   3/ 4   2/110/ 8
CAPE LOOKOUT NC  2100   82     180/ 15/ 17 1019.4F
BUOY 41002       2050   81 80  210/ 14/ 16 1022.2F   4/ 8   3/120/ 8
BUOY 41010       2020   77 83  130/ 10/ 27 1021.7F
ST AUGUSTINE FL  2100   78 76  150/ 11/ 11 1021.6R


$$


USA.gov is the U.S. government's official web portal to all federal, state and local government web resources and services.